Regional Weather Roundup
Issued by NWS

Home | Current Version | Previous Version | Graphics & Text | Print | Product List | Glossary On
Versions: 1 2 3 4 5 6 7 8 9 10 11 12 13 14 15 16 17 18 19 20 21 22 23 24 25 26 27 28
000
ASUS45 KBOU 231207
RWRCO

WEATHER ROUNDUP FOR COLORADO
NATIONAL WEATHER SERVICE DENVER/BOULDER CO
600 AM MDT TUE AUG 23 2016

NOTE: "FAIR" INDICATES FEW OR NO CLOUDS BELOW 12000 FEET WITH NO
SIGNIFICANT WEATHER AND/OR OBSTRUCTIONS TO VISIBILITY.

COZ001>005-013-030-031-231300-
...NORTHWEST COLORADO...

CITY           SKY/WX    TMP DP  RH WIND       PRES   REMARKS
CRAIG          FAIR      44  39  82 CALM      30.19R
HAYDEN         FAIR      48  36  61 E10       30.20R
MEEKER         FAIR      47  40  76 E5        30.21R
MOUNT WERNER   NOT AVBL
STEAMBOAT SPGS FAIR      41  37  86 CALM      30.23R
WALDEN         FAIR      34  32  93 SE8       30.27S WCI  27
$$

COZ006>008-011-231300-
...WEST CENTRAL VALLEYS...

CITY           SKY/WX    TMP DP  RH WIND       PRES   REMARKS
GRAND JUNCTION FAIR      61  47  59 E12       30.13R
MONTROSE       FAIR      52  44  74 CALM      30.21R
EAGLE          FAIR      48  43  81 CALM      30.25R
RIFLE          FAIR      51  46  83 CALM      30.18R
DELTA          NOT AVBL
NUCLA          FAIR      54  46  76 E9        30.25R
$$

COZ017>023-064>068-231300-
...SOUTHWEST COLORADO...

CITY           SKY/WX    TMP DP  RH WIND       PRES   REMARKS
DURANGO        FAIR      49  47  93 NE5       30.24R
CORTEZ         CLOUDY    55  49  80 CALM      30.19R
PAGOSA SPRINGS MOCLDY    47  47  99 CALM      30.31S
TELLURIDE      CLOUDY    46  42  88 SE5       30.39S
WOLF CREEK PAS FOG       36  36 100 SW13      30.54S VSB<1/4
$$

COZ009-010-012-014-032>034-037-058>063-231300-
...CENTRAL COLORADO...

CITY           SKY/WX    TMP DP  RH WIND       PRES   REMARKS
ASPEN          FAIR      46  40  79 S5        30.29R
BUENA VISTA    FAIR      38  34  84 W5        30.27R
COPPER MTN     FAIR      43  36  75 W7        30.51S
BERTHOUD PASS  FAIR      36  23  60 N20       30.52R
COTTONWOOD PAS FAIR      50  36  57 W8        30.36R
GUNNISON       CLOUDY    48  45  87 NE5       30.35R
KREMMLING      FAIR      37  34  87 CALM      30.29R
LEADVILLE      FAIR      41  35  79 NE8       30.37S
MONARCH PASS   FOG       36  36 100 SW20G25   30.58R VSB<1/4
SALIDA         FAIR      52  41  67 N6        30.32R
SUNLIGHT       FAIR      45  39  81 NE3       30.47S
WILKERSON PASS NOT AVBL
$$

COZ069>075-231300-
...SAN LUIS VALLEY/SANGRE DE CRISTO MOUNTAINS...

CITY           SKY/WX    TMP DP  RH WIND       PRES   REMARKS
ALAMOSA        FAIR      43  41  93 CALM      30.28R
LA VETA PASS   FAIR      43  37  81 S16G25    30.35S
SAGUACHE       FAIR      45  39  81 NW12      30.30S
$$

COZ035-036-038>040-231300-
...NORTHERN COLORADO FRONT RANGE...

CITY           SKY/WX    TMP DP  RH WIND       PRES   REMARKS
DENVER INTL AP FAIR      62  39  42 SW12      29.99R
DMNS CITY PARK   N/A     62  39  42 S5G12     29.99S
AURORA         PTCLDY    59  39  47 S10       30.02R
FRONT RANGE AP NOT AVBL
ERIE MUNI ARPT FAIR      56  39  53 CALM      29.97R
BOULDER MUN AP FAIR      70  34  26 NE3       29.97R
CENTENNIAL     FAIR      64  36  35 SW8       30.03R
BROOMFIELD     FAIR      68  36  30 CALM      30.01R
FORT COLLINS   FAIR      57  48  72 CALM      29.96R
LONGMONT       FAIR      58  46  66 E5        29.98R
$$

COZ041-046-047-076>085-087-088-231300-
...PIKES PEAK/PALMER DIVIDE AND SOUTHERN FOOTHILLS...

CITY           SKY/WX    TMP DP  RH WIND       PRES   REMARKS
COLO. SPRINGS  FAIR      58  40  51 N9        30.06R
A. F. ACADEMY  FAIR      57  40  52 N9        30.08R
SCHRIEVER AFB  NOT AVBL
ELLICOTT       NOT AVBL
FALCON         FAIR      58  37  45 NW8       30.11R
FORT CARSON    FAIR      58  40  52 NW5       30.02S
LIMON          FAIR      52  38  58 N6        29.99R
MONUMENT HILL  FAIR      52  36  54 SW10      30.13R
TRINIDAD       FAIR      57  43  59 W12       30.07R
$$

COZ042>045-048>051-090-091-231300-
...NORTHEAST COLORADO...

CITY           SKY/WX    TMP DP  RH WIND       PRES   REMARKS
GREELEY ARPT   FAIR      48  45  87 CALM      29.96R
AKRON          FAIR      57  42  57 W15       29.94R
BURLINGTON     FAIR      58  48  69 W14       29.89R
WRAY           NOT AVBL
STERLING       FAIR      46  45  93 S5        29.90R
HOLYOKE        FAIR      59  55  88 W3        29.86S
FORT MORGAN    FAIR      53  43  69 W8        29.95R
$$

COZ086-089-092>099-231300-
...SOUTHEAST COLORADO...

CITY           SKY/WX    TMP DP  RH WIND       PRES   REMARKS
PUEBLO         FAIR      66  42  41 W3        29.96R
LA JUNTA       FAIR      63  48  58 SW12      29.93S
LAMAR          FAIR      61  51  70 W6        29.89R
SPRINGFIELD      N/A     59  53  80 S10       29.97R
$$




USA.gov is the U.S. government's official web portal to all federal, state and local government web resources and services.